| time (UTC) | temp F | wind direction | speed MPH | gust MPH | rain 1hr in | rain 24hr in | rain mn in | humidity % | barometer mb |
| 20260906010740 | 74 | 156 | 0.0 | 0.0 | 0.00 | 0.53 | 0.53 | 95 | 1007.9 |
| 20260906010239 | 74 | 156 | 0.0 | 0.0 | 0.00 | 0.53 | 0.53 | 95 | 1007.7 |
| 20260906005739 | 74 | 156 | 0.0 | 0.0 | 0.00 | 0.53 | 0.53 | 95 | 1007.5 |
| 20260906005239 | 75 | 157 | 0.0 | 0.0 | 0.00 | 0.53 | 0.53 | 95 | 1007.4 |
| 20260906004739 | 75 | 156 | 0.0 | 0.0 | 0.00 | 0.53 | 0.53 | 95 | 1007.3 |
| 20260906004239 | 75 | 156 | 0.0 | 0.0 | 0.00 | 0.53 | 0.53 | 95 | 1007.3 |
| 20260906004012 | 75 | 156 | 0.0 | 0.0 | 0.00 | 0.53 | 0.53 | 94 | 1007.3 |
| 20260906003236 | 75 | 156 | 0.0 | 0.0 | 0.00 | 0.53 | 0.53 | 94 | 1007.4 |
| 20260906002736 | 75 | 156 | 0.0 | 0.0 | 0.00 | 0.53 | 0.53 | 94 | 1007.3 |
| 20260906002235 | 75 | 157 | 0.0 | 0.0 | 0.00 | 0.53 | 0.53 | 94 | 1007.3 |
| 20260906001736 | 75 | 156 | 0.0 | 0.0 | 0.00 | 0.53 | 0.53 | 94 | 1007.3 |
| 20260906001235 | 75 | 156 | 0.0 | 0.0 | 0.00 | 0.53 | 0.53 | 94 | 1007.1 |
| 20260906000735 | 75 | 156 | 0.0 | 0.0 | 0.00 | 0.53 | 0.53 | 94 | 1006.9 |
| 20260906000234 | 75 | 156 | 0.0 | 0.0 | 0.00 | 0.53 | 0.53 | 93 | 1006.9 |
| 20260905235734 | 75 | 156 | 0.0 | 0.0 | 0.00 | 0.53 | 0.53 | 93 | 1006.8 |
| 20260905235235 | 75 | 156 | 0.0 | 0.0 | 0.00 | 0.53 | 0.53 | 93 | 1006.8 |
| 20260905234729 | 75 | 156 | 0.0 | 0.0 | 0.00 | 0.53 | 0.53 | 93 | 1006.7 |
| 20260905234223 | 75 | 156 | 0.0 | 0.0 | 0.00 | 0.53 | 0.53 | 93 | 1006.7 |
| 20260905233716 | 76 | 156 | 0.0 | 0.0 | 0.00 | 0.53 | 0.53 | 92 | 1006.7 |
| 20260905233211 | 76 | 156 | 0.0 | 0.0 | 0.00 | 0.53 | 0.53 | 92 | 1006.7 |
| 20260905232705 | 76 | 156 | 0.0 | 0.0 | 0.00 | 0.53 | 0.53 | 92 | 1006.5 |
| 20260905232158 | 76 | 156 | 0.0 | 0.0 | 0.00 | 0.54 | 0.53 | 91 | 1006.4 |
| 20260905231653 | 76 | 156 | 0.0 | 0.0 | 0.00 | 0.54 | 0.53 | 91 | 1006.4 |
| 20260905231147 | 76 | 156 | 0.0 | 0.0 | 0.00 | 0.54 | 0.53 | 91 | 1006.4 |
| 20260905230641 | 76 | 156 | 0.0 | 0.0 | 0.00 | 0.54 | 0.53 | 91 | 1006.8 |
| 20260905230401 | 76 | 156 | 0.0 | 0.0 | 0.00 | 0.54 | 0.53 | 90 | 1006.9 |
| 20260905225628 | 76 | 156 | 0.0 | 0.0 | 0.00 | 0.54 | 0.53 | 90 | 1007.1 |
| 20260905225123 | 77 | 156 | 0.0 | 0.0 | 0.00 | 0.54 | 0.53 | 90 | 1007.1 |
| 20260905224616 | 77 | 156 | 0.0 | 0.0 | 0.00 | 0.54 | 0.53 | 89 | 1006.9 |
| 20260905224111 | 77 | 156 | 0.0 | 0.0 | 0.00 | 0.54 | 0.53 | 90 | 1006.8 |
| 20260905223605 | 77 | 156 | 0.0 | 0.0 | 0.00 | 0.54 | 0.53 | 89 | 1006.9 |
| 20260905223059 | 78 | 156 | 0.0 | 0.0 | 0.00 | 0.54 | 0.53 | 89 | 1006.9 |
| 20260905222825 | 78 | 156 | 0.0 | 0.0 | 0.00 | 0.54 | 0.53 | 88 | 1006.9 |
| 20260905222047 | 78 | 156 | 0.0 | 0.0 | 0.00 | 0.56 | 0.53 | 88 | 1006.8 |
| 20260905221541 | 78 | 156 | 0.0 | 0.0 | 0.00 | 0.56 | 0.53 | 86 | 1006.8 |
| 20260905221035 | 78 | 156 | 0.0 | 0.0 | 0.00 | 0.57 | 0.53 | 85 | 1006.7 |
| 20260905220529 | 79 | 156 | 0.0 | 0.0 | 0.00 | 0.61 | 0.53 | 85 | 1006.7 |
| 20260905220023 | 80 | 157 | 0.0 | 0.0 | 0.00 | 0.71 | 0.53 | 84 | 1006.6 |
| 20260905215516 | 80 | 158 | 0.0 | 0.0 | 0.00 | 0.74 | 0.53 | 82 | 1006.6 |
| 20260905215011 | 81 | 162 | 0.0 | 0.0 | 0.00 | 0.74 | 0.53 | 81 | 1006.6 |
| 20260905214505 | 81 | 166 | 0.0 | 0.0 | 0.00 | 0.74 | 0.53 | 82 | 1006.7 |
| 20260905214223 | 82 | 168 | 0.0 | 0.0 | 0.00 | 0.74 | 0.53 | 79 | 1006.7 |
| 20260905213452 | 82 | 168 | 0.0 | 0.0 | 0.00 | 0.74 | 0.53 | 81 | 1006.6 |
| 20260905212947 | 82 | 113 | 0.0 | 1.0 | 0.00 | 0.74 | 0.53 | 81 | 1006.6 |
| 20260905212440 | 82 | 113 | 0.0 | 1.0 | 0.00 | 0.74 | 0.53 | 81 | 1006.7 |
| 20260905212158 | 81 | 92 | 0.0 | 1.0 | 0.00 | 0.74 | 0.53 | 83 | 1006.7 |
| 20260905211428 | 82 | 146 | 0.0 | 2.0 | 0.00 | 0.74 | 0.53 | 82 | 1006.7 |
| 20260905210923 | 82 | 216 | 0.0 | 1.0 | 0.00 | 0.74 | 0.53 | 81 | 1006.8 |
| 20260905210416 | 82 | 216 | 0.0 | 1.0 | 0.00 | 0.74 | 0.53 | 84 | 1006.9 |
| 20260905205911 | 80 | 200 | 0.0 | 0.0 | 0.00 | 0.74 | 0.53 | 86 | 1006.8 |
| 20260905205405 | 80 | 51 | 0.0 | 0.0 | 0.00 | 0.74 | 0.53 | 88 | 1006.8 |
| 20260905204859 | 80 | 50 | 0.0 | 0.0 | 0.00 | 0.74 | 0.53 | 90 | 1006.9 |
| 20260905204620 | 79 | 157 | 0.0 | 0.0 | 0.00 | 0.74 | 0.53 | 90 | 1007.0 |
| 20260905203847 | 79 | 182 | 0.0 | 0.0 | 0.00 | 0.74 | 0.53 | 92 | 1006.9 |
| 20260905203832 | 78 | 182 | 0.0 | 0.0 | 0.00 | 0.74 | 0.53 | 94 | 1006.9 |
| 20260905202835 | 78 | 182 | 0.0 | 0.0 | 0.00 | 0.74 | 0.53 | 94 | 1006.9 |
| 20260905202814 | 78 | 182 | 0.0 | 0.0 | 0.00 | 0.74 | 0.53 | 93 | 1006.8 |
| 20260905201823 | 78 | 182 | 0.0 | 0.0 | 0.00 | 0.74 | 0.53 | 94 | 1006.6 |
| 20260905201317 | 78 | 214 | 0.0 | 0.0 | 0.00 | 0.74 | 0.53 | 96 | 1006.6 |
| 20260905200813 | 77 | 214 | 0.0 | 0.0 | 0.00 | 0.74 | 0.53 | 97 | 1006.5 |
| 20260905200314 | 76 | 214 | 0.0 | 0.0 | 0.01 | 0.74 | 0.53 | 97 | 1006.6 |
| 20260905195814 | 76 | 214 | 0.0 | 0.0 | 0.01 | 0.74 | 0.53 | 97 | 1006.7 |
| 20260905195535 | 76 | 214 | 0.0 | 0.0 | 0.01 | 0.74 | 0.53 | 97 | 1006.7 |
| 20260905194814 | 75 | 214 | 0.0 | 0.0 | 0.01 | 0.74 | 0.53 | 97 | 1006.8 |
| 20260905194314 | 75 | 214 | 0.0 | 0.0 | 0.01 | 0.74 | 0.53 | 97 | 1006.9 |
| 20260905194033 | 75 | 214 | 0.0 | 0.0 | 0.01 | 0.74 | 0.53 | 97 | 1007.1 |
| 20260905193313 | 75 | 214 | 0.0 | 0.0 | 0.01 | 0.74 | 0.53 | 97 | 1007.2 |
| 20260905192812 | 75 | 214 | 0.0 | 0.0 | 0.02 | 0.74 | 0.53 | 96 | 1007.4 |
| 20260905192312 | 74 | 214 | 0.0 | 0.0 | 0.03 | 0.74 | 0.53 | 96 | 1007.4 |
| 20260905191812 | 74 | 214 | 0.0 | 0.0 | 0.04 | 0.74 | 0.53 | 96 | 1007.4 |
| 20260905191312 | 75 | 214 | 0.0 | 0.0 | 0.04 | 0.74 | 0.53 | 97 | 1007.4 |
| 20260905190812 | 75 | 214 | 0.0 | 0.0 | 0.04 | 0.74 | 0.53 | 96 | 1007.6 |
| 20260905190532 | 74 | 214 | 0.0 | 0.0 | 0.03 | 0.73 | 0.52 | 96 | 1007.7 |
| 20260905185812 | 74 | 214 | 0.0 | 0.0 | 0.03 | 0.73 | 0.52 | 96 | 1007.8 |
| 20260905185311 | 74 | 214 | 0.0 | 0.0 | 0.03 | 0.73 | 0.52 | 96 | 1007.9 |
| 20260905184813 | 74 | 214 | 0.0 | 0.0 | 0.03 | 0.73 | 0.52 | 96 | 1007.8 |
| 20260905184307 | 74 | 214 | 0.0 | 0.0 | 0.03 | 0.73 | 0.52 | 96 | 1007.6 |
| 20260905183800 | 74 | 214 | 0.0 | 0.0 | 0.03 | 0.73 | 0.52 | 95 | 1007.6 |
| 20260905183515 | 74 | 214 | 0.0 | 0.0 | 0.03 | 0.73 | 0.52 | 95 | 1007.8 |
| 20260905182749 | 74 | 214 | 0.0 | 0.0 | 0.02 | 0.72 | 0.51 | 94 | 1007.6 |
| 20260905182243 | 75 | 214 | 0.0 | 0.0 | 0.01 | 0.71 | 0.50 | 94 | 1007.4 |
| 20260905181737 | 76 | 214 | 0.0 | 0.0 | 0.00 | 0.70 | 0.49 | 94 | 1007.3 |
| 20260905181231 | 76 | 214 | 0.0 | 0.0 | 0.00 | 0.70 | 0.49 | 94 | 1007.4 |
| 20260905180728 | 76 | 214 | 0.0 | 0.0 | 0.00 | 0.70 | 0.49 | 95 | 1007.5 |
| 20260905180219 | 76 | 214 | 0.0 | 0.0 | 0.00 | 0.70 | 0.49 | 95 | 1007.6 |
| 20260905175937 | 76 | 214 | 0.0 | 0.0 | 0.01 | 0.70 | 0.49 | 97 | 1007.7 |
| 20260905175214 | 76 | 214 | 0.0 | 0.0 | 0.01 | 0.70 | 0.49 | 97 | 1007.8 |
| 20260905174715 | 76 | 214 | 0.0 | 0.0 | 0.03 | 0.70 | 0.49 | 97 | 1007.8 |
| 20260905174215 | 75 | 214 | 0.0 | 1.0 | 0.07 | 0.70 | 0.49 | 97 | 1008.0 |
| 20260905173713 | 74 | 215 | 0.0 | 1.0 | 0.15 | 0.70 | 0.49 | 97 | 1008.2 |
| 20260905173214 | 73 | 215 | 0.0 | 0.0 | 0.28 | 0.70 | 0.49 | 96 | 1008.0 |
| 20260905172718 | 73 | 153 | 0.0 | 0.0 | 0.41 | 0.70 | 0.49 | 95 | 1007.8 |
| 20260905172215 | 73 | 153 | 0.0 | 0.0 | 0.44 | 0.70 | 0.49 | 95 | 1008.0 |
| 20260905171714 | 72 | 153 | 0.0 | 0.0 | 0.49 | 0.70 | 0.49 | 95 | 1007.9 |
| 20260905171214 | 72 | 153 | 0.0 | 0.0 | 0.49 | 0.70 | 0.49 | 94 | 1008.3 |
| 20260905170714 | 72 | 153 | 0.0 | 0.0 | 0.49 | 0.70 | 0.49 | 94 | 1008.5 |
| 20260905170215 | 72 | 153 | 0.0 | 1.0 | 0.49 | 0.70 | 0.49 | 93 | 1009.1 |
| 20260905165714 | 73 | 200 | 1.0 | 4.0 | 0.48 | 0.69 | 0.49 | 92 | 1009.2 |
| 20260905165215 | 73 | 202 | 1.0 | 6.0 | 0.48 | 0.69 | 0.48 | 91 | 1009.3 |
| 20260905164932 | 74 | 195 | 1.0 | 5.0 | 0.46 | 0.67 | 0.46 | 91 | 1009.6 |
| 20260905164213 | 75 | 256 | 1.0 | 4.0 | 0.42 | 0.63 | 0.43 | 91 | 1009.5 |
| 20260905163714 | 77 | 18 | 1.0 | 6.0 | 0.34 | 0.55 | 0.35 | 90 | 1009.3 |
| 20260905163213 | 78 | 150 | 0.0 | 6.0 | 0.21 | 0.42 | 0.24 | 89 | 1009.2 |
| 20260905162714 | 79 | 158 | 0.0 | 0.0 | 0.08 | 0.29 | 0.08 | 88 | 1009.2 |
| 20260905162215 | 80 | 200 | 0.0 | 0.0 | 0.05 | 0.26 | 0.06 | 87 | 1009.0 |
| 20260905161714 | 80 | 30 | 0.0 | 0.0 | 0.00 | 0.21 | 0.00 | 84 | 1008.8 |
| 20260905161214 | 80 | 30 | 0.0 | 0.0 | 0.00 | 0.21 | 0.00 | 84 | 1008.6 |
| 20260905160715 | 81 | 30 | 0.0 | 0.0 | 0.00 | 0.21 | 0.00 | 83 | 1008.7 |
| 20260905160214 | 81 | 30 | 0.0 | 0.0 | 0.00 | 0.21 | 0.00 | 82 | 1008.4 |
| 20260905155714 | 81 | 29 | 0.0 | 0.0 | 0.00 | 0.21 | 0.00 | 82 | 1008.1 |
| 20260905155215 | 81 | 29 | 0.0 | 1.0 | 0.00 | 0.21 | 0.00 | 81 | 1008.1 |
| 20260905154715 | 81 | 351 | 0.0 | 1.0 | 0.00 | 0.21 | 0.00 | 83 | 1008.0 |
| 20260905154211 | 81 | 32 | 0.0 | 1.0 | 0.00 | 0.21 | 0.00 | 85 | 1008.1 |
| 20260905153711 | 81 | 31 | 0.0 | 1.0 | 0.00 | 0.21 | 0.00 | 84 | 1007.9 |
| 20260905153210 | 81 | 30 | 0.0 | 2.0 | 0.00 | 0.21 | 0.00 | 84 | 1007.9 |
| 20260905153137 | 80 | 31 | 0.0 | 2.0 | 0.00 | 0.21 | 0.00 | 84 | 1008.2 |
| 20260905152758 | 80 | 30 | 0.0 | 2.0 | 0.00 | 0.21 | 0.00 | 83 | 1008.1 |
| 20260905151709 | 80 | 30 | 0.0 | 2.0 | 0.00 | 0.21 | 0.00 | 83 | 1008.2 |
| 20260905151429 | 80 | 23 | 0.0 | 2.0 | 0.00 | 0.21 | 0.00 | 83 | 1008.2 |
| 20260905150709 | 81 | 27 | 1.0 | 3.0 | 0.00 | 0.21 | 0.00 | 83 | 1008.3 |
| 20260905150211 | 81 | 30 | 1.0 | 3.0 | 0.00 | 0.21 | 0.00 | 83 | 1008.3 |
| 20260905145705 | 80 | 31 | 0.0 | 2.0 | 0.00 | 0.21 | 0.00 | 83 | 1008.2 |
| 20260905145205 | 80 | 36 | 0.0 | 2.0 | 0.00 | 0.21 | 0.00 | 84 | 1008.3 |
| 20260905144707 | 80 | 33 | 0.0 | 2.0 | 0.00 | 0.21 | 0.00 | 84 | 1008.2 |
| 20260905144206 | 80 | 48 | 0.0 | 1.0 | 0.00 | 0.21 | 0.00 | 85 | 1008.2 |
| 20260905143707 | 79 | 37 | 1.0 | 6.0 | 0.00 | 0.21 | 0.00 | 86 | 1008.2 |
| 20260905143206 | 79 | 32 | 1.0 | 6.0 | 0.00 | 0.21 | 0.00 | 87 | 1008.2 |
| 20260905142705 | 78 | 29 | 1.0 | 3.0 | 0.00 | 0.21 | 0.00 | 90 | 1008.2 |
| 20260905142206 | 78 | 34 | 1.0 | 5.0 | 0.00 | 0.21 | 0.00 | 90 | 1008.2 |
| 20260905141707 | 77 | 32 | 0.0 | 5.0 | 0.00 | 0.21 | 0.00 | 93 | 1008.1 |
| 20260905141200 | 76 | 35 | 0.0 | 2.0 | 0.00 | 0.21 | 0.00 | 95 | 1008.1 |
| 20260905140654 | 76 | 37 | 0.0 | 1.0 | 0.00 | 0.21 | 0.00 | 97 | 1008.0 |
| 20260905140410 | 75 | 37 | 0.0 | 0.0 | 0.00 | 0.21 | 0.00 | 97 | 1007.8 |
| 20260905135642 | 75 | 37 | 0.0 | 2.0 | 0.00 | 0.21 | 0.00 | 98 | 1007.9 |
| 20260905135136 | 74 | 37 | 0.0 | 2.0 | 0.00 | 0.21 | 0.00 | 98 | 1007.8 |
| 20260905134630 | 74 | 80 | 0.0 | 1.0 | 0.00 | 0.21 | 0.00 | 98 | 1007.8 |
| 20260905134129 | 74 | 80 | 0.0 | 1.0 | 0.00 | 0.21 | 0.00 | 98 | 1007.8 |
| 20260905133838 | 74 | 134 | 0.0 | 0.0 | 0.00 | 0.21 | 0.00 | 98 | 1007.8 |
| 20260905133111 | 74 | 162 | 0.0 | 0.0 | 0.00 | 0.21 | 0.00 | 98 | 1007.7 |
| 20260905132612 | 74 | 162 | 0.0 | 0.0 | 0.00 | 0.21 | 0.00 | 98 | 1007.7 |
| 20260905132330 | 73 | 162 | 0.0 | 0.0 | 0.00 | 0.21 | 0.00 | 98 | 1007.8 |
| 20260905131845 | 73 | 162 | 0.0 | 0.0 | 0.00 | 0.21 | 0.00 | 98 | 1007.8 |
| 20260905131332 | 73 | 162 | 0.0 | 0.0 | 0.00 | 0.21 | 0.00 | 98 | 1007.8 |
| 20260905130603 | 73 | 162 | 0.0 | 0.0 | 0.00 | 0.21 | 0.00 | 98 | 1007.6 |
| 20260905125600 | 73 | 162 | 0.0 | 0.0 | 0.00 | 0.21 | 0.00 | 98 | 1007.5 |
| 20260905125100 | 73 | 162 | 0.0 | 0.0 | 0.00 | 0.21 | 0.00 | 98 | 1007.5 |
| 20260905124601 | 73 | 162 | 0.0 | 0.0 | 0.00 | 0.21 | 0.00 | 98 | 1007.6 |
| 20260905124319 | 72 | 162 | 0.0 | 0.0 | 0.00 | 0.21 | 0.00 | 98 | 1007.7 |
| 20260905123820 | 72 | 162 | 0.0 | 0.0 | 0.00 | 0.21 | 0.00 | 98 | 1007.8 |
| 20260905123056 | 72 | 162 | 0.0 | 0.0 | 0.00 | 0.21 | 0.00 | 98 | 1007.7 |
| 20260905122556 | 72 | 162 | 0.0 | 0.0 | 0.00 | 0.21 | 0.00 | 98 | 1007.8 |
| 20260905122053 | 71 | 162 | 0.0 | 0.0 | 0.00 | 0.21 | 0.00 | 98 | 1007.8 |
| 20260905121551 | 71 | 162 | 0.0 | 0.0 | 0.00 | 0.21 | 0.00 | 98 | 1007.8 |
| 20260905121052 | 71 | 162 | 0.0 | 0.0 | 0.00 | 0.21 | 0.00 | 98 | 1007.8 |
| 20260905120553 | 71 | 162 | 0.0 | 0.0 | 0.00 | 0.21 | 0.00 | 98 | 1007.7 |
| 20260905120051 | 71 | 162 | 0.0 | 0.0 | 0.00 | 0.21 | 0.00 | 98 | 1007.7 |
| 20260905115552 | 70 | 162 | 0.0 | 0.0 | 0.00 | 0.21 | 0.00 | 98 | 1007.7 |
| 20260905115308 | 70 | 162 | 0.0 | 0.0 | 0.00 | 0.21 | 0.00 | 98 | 1007.7 |
| 20260905114541 | 70 | 162 | 0.0 | 0.0 | 0.00 | 0.21 | 0.00 | 98 | 1007.7 |
| 20260905114034 | 70 | 162 | 0.0 | 0.0 | 0.00 | 0.21 | 0.00 | 98 | 1007.6 |
| 20260905113528 | 70 | 162 | 0.0 | 0.0 | 0.00 | 0.21 | 0.00 | 98 | 1007.6 |
| 20260905113023 | 70 | 162 | 0.0 | 0.0 | 0.00 | 0.21 | 0.00 | 98 | 1007.6 |
| 20260905112516 | 70 | 162 | 0.0 | 0.0 | 0.00 | 0.21 | 0.00 | 98 | 1007.5 |
| 20260905112010 | 70 | 162 | 0.0 | 0.0 | 0.00 | 0.21 | 0.00 | 98 | 1007.5 |
| 20260905111504 | 70 | 162 | 0.0 | 0.0 | 0.00 | 0.21 | 0.00 | 98 | 1007.4 |
| 20260905110958 | 70 | 162 | 0.0 | 0.0 | 0.00 | 0.21 | 0.00 | 98 | 1007.5 |
| 20260905110453 | 70 | 162 | 0.0 | 0.0 | 0.00 | 0.21 | 0.00 | 98 | 1007.4 |
| 20260905105947 | 70 | 162 | 0.0 | 0.0 | 0.00 | 0.21 | 0.00 | 98 | 1007.3 |
| 20260905105440 | 69 | 162 | 0.0 | 0.0 | 0.00 | 0.21 | 0.00 | 98 | 1007.4 |
| 20260905104934 | 69 | 162 | 0.0 | 0.0 | 0.00 | 0.21 | 0.00 | 98 | 1007.3 |
| 20260905104429 | 70 | 162 | 0.0 | 0.0 | 0.00 | 0.21 | 0.00 | 98 | 1007.2 |
| 20260905103923 | 70 | 162 | 0.0 | 0.0 | 0.00 | 0.21 | 0.00 | 98 | 1007.1 |
| 20260905103417 | 70 | 162 | 0.0 | 0.0 | 0.00 | 0.21 | 0.00 | 98 | 1007.1 |
| 20260905102911 | 70 | 162 | 0.0 | 0.0 | 0.00 | 0.21 | 0.00 | 98 | 1007.2 |
| 20260905102406 | 70 | 162 | 0.0 | 0.0 | 0.00 | 0.21 | 0.00 | 98 | 1007.1 |
| 20260905101859 | 70 | 162 | 0.0 | 0.0 | 0.00 | 0.21 | 0.00 | 98 | 1007.1 |
| 20260905101353 | 70 | 162 | 0.0 | 0.0 | 0.00 | 0.21 | 0.00 | 98 | 1007.0 |
| 20260905100846 | 70 | 162 | 0.0 | 0.0 | 0.00 | 0.21 | 0.00 | 98 | 1006.9 |
| 20260905100341 | 70 | 162 | 0.0 | 0.0 | 0.00 | 0.21 | 0.00 | 98 | 1006.9 |
| 20260905095835 | 70 | 162 | 0.0 | 0.0 | 0.00 | 0.21 | 0.00 | 98 | 1006.9 |
| 20260905095328 | 70 | 162 | 0.0 | 0.0 | 0.00 | 0.21 | 0.00 | 97 | 1006.9 |
| 20260905094822 | 70 | 162 | 0.0 | 0.0 | 0.00 | 0.21 | 0.00 | 98 | 1006.9 |
| 20260905094316 | 70 | 162 | 0.0 | 0.0 | 0.00 | 0.21 | 0.00 | 98 | 1006.9 |
| 20260905093810 | 70 | 162 | 0.0 | 0.0 | 0.00 | 0.21 | 0.00 | 98 | 1006.9 |
| 20260905093305 | 70 | 162 | 0.0 | 0.0 | 0.00 | 0.21 | 0.00 | 98 | 1006.9 |
| 20260905092758 | 70 | 162 | 0.0 | 0.0 | 0.00 | 0.21 | 0.00 | 98 | 1006.8 |
| 20260905092518 | 70 | 162 | 0.0 | 0.0 | 0.00 | 0.21 | 0.00 | 98 | 1006.8 |
| 20260905092008 | 70 | 162 | 0.0 | 0.0 | 0.00 | 0.21 | 0.00 | 98 | 1006.8 |
| 20260905091240 | 70 | 162 | 0.0 | 0.0 | 0.00 | 0.21 | 0.00 | 98 | 1006.6 |
| 20260905090735 | 70 | 162 | 0.0 | 0.0 | 0.00 | 0.21 | 0.00 | 97 | 1006.5 |
| 20260905090453 | 71 | 162 | 0.0 | 0.0 | 0.00 | 0.21 | 0.00 | 98 | 1006.5 |
| 20260905085942 | 70 | 162 | 0.0 | 0.0 | 0.00 | 0.21 | 0.00 | 97 | 1006.6 |
| 20260905085217 | 71 | 162 | 0.0 | 0.0 | 0.00 | 0.21 | 0.00 | 97 | 1006.6 |
| 20260905084711 | 71 | 162 | 0.0 | 0.0 | 0.00 | 0.21 | 0.00 | 97 | 1006.6 |
| 20260905084205 | 71 | 162 | 0.0 | 0.0 | 0.00 | 0.21 | 0.00 | 97 | 1006.5 |
| 20260905083659 | 71 | 162 | 0.0 | 0.0 | 0.00 | 0.21 | 0.00 | 97 | 1006.5 |
| 20260905083153 | 71 | 162 | 0.0 | 0.0 | 0.00 | 0.21 | 0.00 | 97 | 1006.7 |
| 20260905082648 | 71 | 162 | 0.0 | 0.0 | 0.00 | 0.21 | 0.00 | 97 | 1006.7 |
| 20260905082618 | 71 | 162 | 0.0 | 0.0 | 0.00 | 0.21 | 0.00 | 97 | 1006.7 |
| 20260905081836 | 71 | 162 | 0.0 | 0.0 | 0.00 | 0.21 | 0.00 | 97 | 1006.8 |
| 20260905081723 | 71 | 162 | 0.0 | 0.0 | 0.00 | 0.21 | 0.00 | 97 | 1006.7 |
| 20260905080622 | 71 | 162 | 0.0 | 0.0 | 0.00 | 0.21 | 0.00 | 97 | 1006.8 |
| 20260905080117 | 71 | 162 | 0.0 | 0.0 | 0.00 | 0.21 | 0.00 | 97 | 1006.9 |
| 20260905075611 | 71 | 162 | 0.0 | 0.0 | 0.00 | 0.21 | 0.00 | 97 | 1006.9 |
| 20260905075105 | 71 | 162 | 0.0 | 0.0 | 0.00 | 0.21 | 0.00 | 97 | 1006.9 |
| 20260905074559 | 71 | 162 | 0.0 | 0.0 | 0.00 | 0.21 | 0.00 | 97 | 1007.1 |
| 20260905074053 | 71 | 162 | 0.0 | 0.0 | 0.00 | 0.21 | 0.00 | 97 | 1007.2 |
| 20260905073547 | 71 | 162 | 0.0 | 0.0 | 0.00 | 0.21 | 0.00 | 97 | 1007.2 |
| 20260905073041 | 71 | 162 | 0.0 | 0.0 | 0.00 | 0.21 | 0.00 | 97 | 1007.2 |
| 20260905072535 | 71 | 162 | 0.0 | 0.0 | 0.00 | 0.21 | 0.00 | 97 | 1007.3 |
| 20260905072028 | 71 | 162 | 0.0 | 1.0 | 0.00 | 0.21 | 0.00 | 97 | 1007.2 |
| 20260905071522 | 71 | 142 | 0.0 | 1.0 | 0.00 | 0.21 | 0.00 | 97 | 1007.2 |
| 20260905071016 | 71 | 142 | 0.0 | 0.0 | 0.00 | 0.21 | 0.00 | 97 | 1007.2 |
| 20260905071006 | 71 | 142 | 0.0 | 0.0 | 0.00 | 0.21 | 0.00 | 97 | 1007.3 |
| 20260905070005 | 71 | 142 | 0.0 | 1.0 | 0.00 | 0.21 | 0.00 | 97 | 1007.4 |
| 20260905065458 | 71 | 142 | 0.0 | 1.0 | 0.00 | 0.21 | 0.00 | 97 | 1007.4 |
| 20260905064953 | 71 | 202 | 0.0 | 1.0 | 0.00 | 0.21 | 0.00 | 97 | 1007.5 |
| 20260905064446 | 71 | 177 | 0.0 | 1.0 | 0.00 | 0.21 | 0.00 | 97 | 1007.5 |
| 20260905063940 | 71 | 171 | 0.0 | 0.0 | 0.00 | 0.21 | 0.00 | 97 | 1007.5 |
| 20260905063437 | 72 | 170 | 0.0 | 0.0 | 0.00 | 0.21 | 0.00 | 97 | 1007.6 |
| 20260905062938 | 72 | 170 | 0.0 | 0.0 | 0.00 | 0.21 | 0.00 | 97 | 1007.6 |
| 20260905062438 | 72 | 170 | 0.0 | 0.0 | 0.00 | 0.21 | 0.00 | 97 | 1007.7 |
| 20260905061936 | 72 | 170 | 0.0 | 1.0 | 0.00 | 0.21 | 0.00 | 97 | 1007.6 |
| 20260905061436 | 72 | 170 | 0.0 | 1.0 | 0.00 | 0.21 | 0.00 | 97 | 1007.8 |
| 20260905060932 | 72 | 211 | 0.0 | 1.0 | 0.00 | 0.21 | 0.00 | 97 | 1007.7 |
| 20260905060433 | 72 | 211 | 0.0 | 1.0 | 0.00 | 0.21 | 0.00 | 97 | 1007.8 |
| 20260905060152 | 72 | 225 | 0.0 | 1.0 | 0.00 | 0.21 | 0.00 | 97 | 1008.0 |
| 20260905055432 | 72 | 186 | 0.0 | 0.0 | 0.00 | 0.21 | 0.00 | 97 | 1008.1 |
| 20260905054934 | 72 | 188 | 0.0 | 0.0 | 0.00 | 0.21 | 0.00 | 97 | 1008.1 |
| 20260905054434 | 72 | 212 | 0.0 | 1.0 | 0.00 | 0.21 | 0.00 | 97 | 1008.2 |
| 20260905053930 | 72 | 212 | 0.0 | 1.0 | 0.00 | 0.21 | 0.00 | 97 | 1008.3 |
| 20260905053429 | 72 | 213 | 0.0 | 1.0 | 0.00 | 0.21 | 0.00 | 97 | 1008.4 |
| 20260905052929 | 72 | 164 | 0.0 | 1.0 | 0.00 | 0.21 | 0.00 | 97 | 1008.5 |
| 20260905052430 | 72 | 152 | 0.0 | 0.0 | 0.00 | 0.21 | 0.00 | 97 | 1008.6 |
| 20260905051930 | 72 | 150 | 0.0 | 0.0 | 0.00 | 0.21 | 0.00 | 97 | 1008.7 |
| 20260905051428 | 72 | 132 | 0.0 | 1.0 | 0.00 | 0.21 | 0.00 | 97 | 1008.8 |
| 20260905050929 | 72 | 172 | 0.0 | 1.0 | 0.00 | 0.21 | 0.00 | 97 | 1008.9 |
| 20260905050430 | 72 | 223 | 0.0 | 1.0 | 0.00 | 0.21 | 0.00 | 97 | 1009.0 |
| 20260905050206 | 72 | 223 | 0.0 | 1.0 | 0.00 | 0.21 | 0.00 | 97 | 1009.2 |
| 20260905045428 | 72 | 223 | 0.0 | 0.0 | 0.00 | 0.21 | 0.00 | 97 | 1009.2 |
| 20260905044930 | 72 | 223 | 0.0 | 0.0 | 0.00 | 0.21 | 0.00 | 97 | 1009.2 |
| 20260905044428 | 72 | 223 | 0.0 | 0.0 | 0.00 | 0.21 | 0.00 | 97 | 1009.4 |
| 20260905043929 | 72 | 223 | 0.0 | 0.0 | 0.00 | 0.21 | 0.00 | 97 | 1009.5 |
| 20260905043429 | 72 | 223 | 0.0 | 0.0 | 0.00 | 0.21 | 0.00 | 97 | 1009.5 |
| 20260905042929 | 72 | 223 | 0.0 | 1.0 | 0.00 | 0.21 | 0.00 | 97 | 1009.5 |
| 20260905042430 | 72 | 223 | 0.0 | 1.0 | 0.00 | 0.21 | 0.00 | 97 | 1009.5 |
| 20260905041930 | 72 | 26 | 0.0 | 1.0 | 0.00 | 0.21 | 0.00 | 97 | 1009.4 |
| 20260905041429 | 73 | 93 | 0.0 | 1.0 | 0.00 | 0.21 | 0.00 | 97 | 1009.4 |
| 20260905040922 | 73 | 149 | 0.0 | 1.0 | 0.00 | 0.21 | 0.00 | 97 | 1009.6 |
| 20260905040417 | 73 | 131 | 0.0 | 3.0 | 0.00 | 0.21 | 0.00 | 97 | 1009.5 |
| 20260905035912 | 73 | 227 | 0.0 | 3.0 | 0.00 | 0.21 | 0.21 | 97 | 1009.6 |
| 20260905035406 | 73 | 219 | 0.0 | 1.0 | 0.00 | 0.21 | 0.21 | 97 | 1009.6 |
| 20260905035127 | 73 | 63 | 0.0 | 1.0 | 0.00 | 0.21 | 0.21 | 97 | 1009.5 |
| 20260905034354 | 73 | 155 | 0.0 | 0.0 | 0.00 | 0.21 | 0.21 | 97 | 1009.6 |
| 20260905033848 | 73 | 155 | 0.0 | 0.0 | 0.00 | 0.21 | 0.21 | 97 | 1009.6 |
| 20260905033342 | 73 | 153 | 0.0 | 1.0 | 0.00 | 0.21 | 0.21 | 97 | 1009.6 |
| 20260905032837 | 73 | 153 | 0.0 | 1.0 | 0.00 | 0.21 | 0.21 | 97 | 1009.7 |
| 20260905032330 | 73 | 76 | 0.0 | 1.0 | 0.00 | 0.21 | 0.21 | 97 | 1009.7 |
| 20260905031824 | 73 | 103 | 0.0 | 0.0 | 0.00 | 0.21 | 0.21 | 97 | 1009.7 |
| 20260905031322 | 73 | 103 | 0.0 | 0.0 | 0.00 | 0.21 | 0.21 | 97 | 1009.6 |
| 20260905030812 | 73 | 120 | 0.0 | 0.0 | 0.00 | 0.21 | 0.21 | 97 | 1009.6 |
| 20260905030306 | 73 | 120 | 0.0 | 0.0 | 0.00 | 0.21 | 0.21 | 97 | 1009.6 |
| 20260905025800 | 73 | 120 | 0.0 | 0.0 | 0.00 | 0.21 | 0.21 | 97 | 1009.5 |
| 20260905025254 | 73 | 121 | 0.0 | 0.0 | 0.00 | 0.21 | 0.21 | 97 | 1009.6 |
| 20260905024747 | 73 | 120 | 0.0 | 0.0 | 0.00 | 0.21 | 0.21 | 97 | 1009.6 |
| 20260905024242 | 73 | 121 | 0.0 | 0.0 | 0.00 | 0.21 | 0.21 | 97 | 1009.6 |
| 20260905023736 | 73 | 121 | 0.0 | 0.0 | 0.00 | 0.21 | 0.21 | 97 | 1009.8 |
| 20260905023229 | 73 | 120 | 0.0 | 1.0 | 0.00 | 0.21 | 0.21 | 97 | 1009.6 |
| 20260905022724 | 73 | 121 | 0.0 | 1.0 | 0.00 | 0.21 | 0.21 | 97 | 1009.7 |
| 20260905022218 | 73 | 122 | 0.0 | 0.0 | 0.00 | 0.21 | 0.21 | 97 | 1009.8 |
| 20260905021712 | 73 | 139 | 0.0 | 1.0 | 0.00 | 0.21 | 0.21 | 97 | 1009.8 |
| 20260905021205 | 73 | 146 | 0.0 | 0.0 | 0.00 | 0.21 | 0.21 | 97 | 1009.6 |
| 20260905020700 | 74 | 149 | 0.0 | 0.0 | 0.00 | 0.21 | 0.21 | 97 | 1009.6 |
| 20260905020154 | 74 | 149 | 0.0 | 0.0 | 0.00 | 0.21 | 0.21 | 97 | 1009.6 |
| 20260905015647 | 74 | 149 | 0.0 | 0.0 | 0.00 | 0.21 | 0.21 | 97 | 1009.7 |
| 20260905015142 | 74 | 149 | 0.0 | 0.0 | 0.00 | 0.21 | 0.21 | 97 | 1009.5 |
| 20260905014856 | 74 | 149 | 0.0 | 0.0 | 0.00 | 0.21 | 0.21 | 97 | 1009.5 |
| 20260905014130 | 74 | 149 | 0.0 | 0.0 | 0.00 | 0.21 | 0.21 | 97 | 1009.5 |
| 20260905013624 | 73 | 149 | 0.0 | 0.0 | 0.00 | 0.21 | 0.21 | 97 | 1009.5 |
| 20260905013118 | 73 | 149 | 0.0 | 0.0 | 0.00 | 0.21 | 0.21 | 97 | 1009.4 |
| 20260905012612 | 74 | 149 | 0.0 | 0.0 | 0.00 | 0.21 | 0.21 | 97 | 1009.3 |
| 20260905012112 | 73 | 149 | 0.0 | 0.0 | 0.00 | 0.21 | 0.21 | 97 | 1009.1 |
| 20260905011613 | 74 | 149 | 0.0 | 0.0 | 0.00 | 0.21 | 0.21 | 97 | 1009.1 |
| 20260905011337 | 74 | 149 | 0.0 | 0.0 | 0.00 | 0.21 | 0.21 | 97 | 1008.9 |